DELTA 1 DEB, 42639

Orbit data source: Space-Track

DELTA 1 DEB, 42639 is space debris in SSO originally from a launch on Thu, 12 Jun 1975 UTC launched from the Air Force Western Test Range (AFWTR). Debris objects in space refer to the collection of defunct objects orbiting the Earth. Examples of debris include non-operational satellites, rocket bodies, and fragments generated from explosions, collisions, or faulty payload assembly.

Loading next visibility...
Identifier
42639, 1975-052LY
Orbit
SSO
Country
Flag of USUS
Related business
Manufacturer
Unknown
Mission
Spacecraft
Bus & Motor
Unknown
Mass
Unknown
Launch date (UTC)
1975-06-12 (51 years ago)
Launch vehicle
Unknown
Launch site
Air Force Western Test Range (AFWTR)
Object type
Payload
Rocket body
Debris
Shape & HBR
Unknown shape, 0.1 m
Radar Cross Section
Small (<0.1 m²)

Expand to show TLE details & history
Last TLE update: 3 days ago

TLE from 3 days ago
0 DELTA 1 DEB
1 42639U 75052LY  25346.81044372  .00000075  00000-0  23835-3 0  9998
2 42639  99.6879 173.5372 0071194 116.5529 261.5959 13.31661614586001
Epoch: 2025-12-12T19:27Z
TLE epoch observation values (Epoch: 2025-12-12T19:27:02.337Z)
Latitude
17.07623°
Longitude
157.04°
Altitude
1,150.857 km
Speed
7.275 km/s
True Right ascension
11h 22m 11s
True Declination
16° 59' 06"
Sunlit
Object was in daylight at epoch
Visualization orbit readout
Latitude
Unknown
Longitude
Unknown
Altitude
Unknown
Speed
Unknown
Apparent Right ascension
Unknown
Apparent Declination
Unknown
Sunlit
N/A
Visualization observer readout
Local Sidereal Time
18:50:43
Azimuth
Unknown
Elevation
Unknown
Doppler factor
Unknown
Orbital elements
Apogee altitude
1,191.337 km
Perigee altitude
1,084.318 km
Semi-major axis
7,515.964 km
Eccentricity
0.00712
Inclination
99.6879°
RAAN
173.5372°
Arg. of periapsis
116.5529°
True anomaly
260.78991°
Mean anomaly
261.5959°
Eccentric anomaly
261.1928°
Mean motion
3.33093 °/min
Orbital period
108.08 mins
BSTAR
0.00023835
Loading maneuver chart data...
Computing Atmospheric mass density...

Documentation

Showing up to 5 results
|